Flight Information

DEPARTURE
LAS VEGAS, NV
Elevation:
1869
Runways:
3R/21L - 10051x150 - CONC
3L/21R - 10120x200 - CONC
Clearance Delivery:
120.9
Ground:
121.8
Tower:
132.55
DESTINATION
,
Elevation:
TPA:
1000 (est.)


6597.2 NM75° True-14° Var60° HDG

Flight Plan:
(click to file on line)

1. Type
2. Aircraft Identification
3. Aircraft Type / Special Equipment
4. True Airspeed
kts
5. Departure Airport
(ICAO code)
6. Arriving Airport
(ICAO code)
7. Cruising Altitude
ft
8. Alternate Airport
(ICAO code)
9. Route of Flight
10. Remarks


00:00:00 Departure ATIS: Destination ATIS:

Clearance Limit:
Route:
Altitude: Expect in minutes
Frequency:
Transponder: (7500 Hijack / 7600 Lost Comms / 7700 Emergency)


KLSV 261258Z 09003KT 10SM CLR 28/06 A2996 RMK AO2A SLP117 T02770064 $
Time: 2022-06-26T12:58:00Z
1656250446
Winds: 90 @ 3 kts
Visibility: 10.0 sm
Clouds (AGL): CLR
Temperature: 27.7 C
Dew Point: 6.4 C
Pressure: 29.958662 in Hgbr


Notes:

Data extracted from FAA Digital Chart Supplement. Effective: 0901Z Thursday, 27 JAN 2022 to 0900z Thursday, 24 MAR 2022
Current ATIS data is provided courtisy of PilotEdge.